{"data":{"norad_id":67831,"intl_designator":"2026-033L","name":"STARLINK-36661","alt_names":[],"object_type":"PAYLOAD","status":"ACTIVE","operator":null,"country":"US","launch_date":"2026-02-16","launch_site_code":"AFETR","launch_vehicle":null,"mission":null,"orbit_class":"UNKNOWN","rcs_meters":null,"size_class":null,"mass_kg":null,"dimensions":null,"purposes":["comms"],"wikipedia_slug":null,"has_3d_model":false,"image_url":null,"decayed_at":null,"tle_current":{"epoch":"2026-09-19T07:52:13.586592Z","epoch_age_seconds":167792,"freshness":"FRESH","line1":"1 67831U 26033L   26262.32793503  .00008615  00000+0  32218-3 0  9997","line2":"2 67831  43.0007 253.9166 0001456 275.2823  84.7863 15.27584266 34287","mean_motion":15.27584266,"eccentricity":0.0001456,"inclination_deg":43.0007,"raan_deg":253.9166,"arg_perigee_deg":275.2823,"mean_anomaly_deg":84.7863,"bstar":0.00032218,"rev_number":3428,"period_min":94.266485460122,"perigee_km":482.03733529499,"apogee_km":484.0353089664,"semimajor_km":6861.1733221307,"source":"CELESTRAK","updated_at":"2026-09-20T09:00:43.669100Z"}}}